Location: Lombard
(41.8800°N, 88.0078°W)
Time: 01:06:40
(UTC-06:00)

BlueWalker 3 - Pass Details

Date: 25 January 2026
Orbit: 450 x 461 km, 53.2° (Epoch: 11 February)

Event Time Altitude Azimuth Distance (km) Brightness Sun altitude
Rises 18:26:35 0° 270° (W) 2,452 7.1 -16.4°
Reaches altitude 10° 18:29:04 10° 286° (WNW) 1,581 5.4 -16.9°
Maximum altitude 18:31:53 22° 339° (NNW) 1,045 3.6 -17.4°
Enters shadow 18:33:16 18° 11° (N) 1,196 3.6 -17.6°
